Weather in Lahdenpohya

Russia / Republic of Karelia     61°31′07″N   30°11′58″E
temp.,
°C
wind,
m/s
gust,
m/s
humid.,
%
clouds,
%
prec.,
mm/h
press.,
hPa
HPBL,
m
6 august, fri
fri600:00+12nne33796 0.0 101743
03:00+13nne3574100 0.1 1017125
06:00+13ne37795 0.0 1017221
09:00+16ene475968 0.0 1017453
12:00+19e475112 0.0 10171485
15:00+19e4753100 0.0 10161385
18:00+18ese375622 0.0 10161069
21:00+15ne35705 0.0 101679
7 august, sat
sat700:00+13ene511755 0.0 1016327
03:00+13ene6137692 0.0 1016572
06:00+13ene6128490 0.0 1015600
09:00+14ene71181100 0.1 1014841
12:00+18ene61170100 0.0 1013845
15:00+18e51274100 0.3 10121008
18:00+16e71392100 2.1 1011814
21:00+15ene81596100 9.3 1010896
8 august, sun
sun800:00+15ene81596100 3.2 1009988
03:00+15e61298100 4.4 1009697
06:00+15ese61198100 0.6 1009554
09:00+15e51098100 1.2 1010540
12:00+15e589993 0.9 1010388
15:00+16ese469643 0.9 1012315
18:00+17ese357697 0.0 1013348
21:00+15ese239059 0.0 101354
9 august, mon
mon900:00+15e2392100 0.0 101440
03:00+15e3795100 0.0 1014167
06:00+15e379588 0.0 1014173
09:00+17ese4785100 0.0 1014344
12:00+16ese479099 0.0 1014292
15:00+17ese3887100 0.0 1014231
18:00+18ese388395 0.2 1013243
21:00+17ssw23965 0.9 101348
10 august, tue
tue1000:00+16ssw389841 2.3 1014250
03:00+16sw4793100 2.3 1014355
06:00+15ssw269838 0.0 1015218
09:00+18ssw368866 0.0 1016384
12:00+21s466318 0.0 10161064
15:00+21se5663100 0.0 1016769
18:00+21ssw3664100 0.0 1017571
21:00+17sw2479100 0.0 101761